Regional Weather Roundup
Issued by NWS

Home | Current Version | Previous Version | Text Only | Print | Product List | Glossary Off
Versions: 1 2 3 4 5 6 7 8 9 10 11 12 13 14 15 16 17 18 19 20 21 22 23 24 25 26 27 28 29 30 31 32 33 34 35 36 37 38 39 40 41 42 43 44 45 46 47 48 49 50

605
ASUS45 KPSR 292010
RWRAZ

ARIZONA HOURLY REGIONAL WEATHER ROUNDUP
NATIONAL WEATHER SERVICE PHOENIX AZ
100 PM MST FRI JUL 29 2016

NOTE: FAIR INDICATES FEW OR NO CLOUDS BELOW 12,000 FEET WITH NO
SIGNIFICANT WEATHER AND/OR OBSTRUCTIONS TO VISIBILITY.

AZZ001>003-036-292100-
NORTHWEST ARIZONA

CITY           SKY/WX    TMP DP  RH WIND       PRES   REMARKS
BULLHEAD CITY  SUNNY    111  55  16 SW10      29.72F HX 110
KINGMAN        MOSUNNY  101  50  18 S13G21    29.97F
$$

AZZ004>008-015-016-018-292100-
NORTH CENTRAL ARIZONA

CITY           SKY/WX    TMP DP  RH WIND       PRES   REMARKS
GRAND CANYON   MOSUNNY   93  38  14 CALM      30.23F
WILLIAMS       MOSUNNY   90  41  18 SW8G14    30.32F
PRESCOTT       MOSUNNY   97  42  15 NW8       30.10F
FLAGSTAFF      MOSUNNY   83  39  21 VRB6      30.27S
PAYSON         SUNNY     93  50  22 SW9G20    30.13F
PAGE           SUNNY    101  29   8 MISG      29.98F
$$

AZZ009>014-017-292100-
NORTHEAST ARIZONA

CITY           SKY/WX    TMP DP  RH WIND       PRES   REMARKS
WINSLOW        MOSUNNY  100  38  11 SE7       30.05F
SAINT JOHNS    SUNNY     96  40  14 NW10G22   30.10F
WINDOW ROCK    LGT RAIN  80  42  25 N30G39    30.26R
SHOW LOW       SUNNY     90  41  18 SW8       30.20F
$$

AZZ023-292100-
GREATER PHOENIX AREA

CITY           SKY/WX    TMP DP  RH WIND       PRES   REMARKS
PHOENIX        MOSUNNY  104  61  24 NW9       29.78F HX 105
BUCKEYE        SUNNY    106  57  20 W9        29.80F HX 105
GLENDALE       MOSUNNY  106  63  24 S7        29.80F HX 108
LUKE AFB       SUNNY    106  63  24 SW13G18   29.76F HX 108
DEER VALLEY    SUNNY    102  61  25 SW7       29.80F HX 103
SCOTTSDALE     SUNNY    102  60  25 W8        29.83F HX 103
MESA-GATEWAY   MOSUNNY  100  63  28 NW6       29.82F HX 102
CHANDLER       SUNNY    102  61  25 W6        29.80F HX 103
$$

AZZ027-028-292100-
SOUTHWEST MARICOPA COUNTY AND PINAL COUNTY

CITY           SKY/WX    TMP DP  RH WIND       PRES   REMARKS
CASA GRANDE    SUNNY    104  63  25 NW6       29.83F HX 106
GILA BEND      MOSUNNY  105  60  23 SW9       29.77F HX 106
$$

AZZ503-504-507>509-292100-
SOUTHEAST ARIZONA

CITY           SKY/WX    TMP DP  RH WIND       PRES   REMARKS
TUCSON         MOSUNNY  100  60  26 NW8       29.92F HX 100
DAVIS-MONTHAN  MOSUNNY   97  62  30 VRB2      29.91F
RYAN FIELD     SUNNY     99  63  30 W7        29.92F HX 100
NOGALES        MOSUNNY   92  64  39 SW5       30.02F
SIERRA VISTA   MOSUNNY   95  52  23 VRB3      30.09F
DOUGLAS        MOSUNNY   96  59  29 E8        30.02F
SAFFORD        PTSUNNY   98  53  22 S6        29.93F
$$

AZZ020-021-025-026-031-292100-
SOUTHWEST ARIZONA

CITY           SKY/WX    TMP DP  RH WIND       PRES   REMARKS
YUMA           MOSUNNY  104  68  31 SW13      29.74F HX 110
$$

CAZ031-033-041-043-047-048-061-292100-
SOUTHERN CALIFORNIA

CITY           SKY/WX    TMP DP  RH WIND       PRES   REMARKS
DOWNTOWN L.A.  SUNNY     86  65  49 CALM      29.82S
L.A. AIRPORT   SUNNY     78  65  63 W14       29.84F
SAN DIEGO      MOSUNNY   75  66  73 SW12      29.86F
BURBANK        SUNNY     91  62  37 S8        29.83F
ONTARIO        MOSUNNY   98  57  25 W7G23     29.82F
RIVERSIDE      SUNNY    100  53  20 VRB6      29.81F
PALM SPRINGS   SUNNY    104  64  27 E10       29.76F HX 107
EL CENTRO NAS  MOSUNNY  104  69  32 VRB3      29.73F HX 111
IMPERIAL       SUNNY    106  72  33 VRB6      29.70F HX 117
NEEDLES        SUNNY    112  55  15 S9        29.74F HX 111
$$

NVZ020-UTZ003-292100-
SOUTHERN NEVADA-UTAH

CITY           SKY/WX    TMP DP  RH WIND       PRES   REMARKS
LAS VEGAS      PTSUNNY  110  43  10 NE14      29.80F HX 104
SALT LAKE CITY MOSUNNY   99  34  10 NW12      30.01F
$$

NMZ009-TXZ055-292100-
NEW MEXICO-WEST TEXAS

CITY           SKY/WX    TMP DP  RH WIND       PRES   REMARKS
ALBUQUERQUE    MOSUNNY   92  48  22 SW20G28   30.13F
EL PASO        MOSUNNY   96  50  20 E16G23    30.04F
$$


........................KEY........................
SKY/WX - SKY CONDITION/WEATHER
TMP    - TEMPERATURE IN FAHRENHEIT
DP     - DEW POINT IN FAHRENHEIT
RH     - RELATIVE HUMIDITY IN PERCENT
WIND   - DIRECTION AND SPEED IN MILES PER HOUR (MPH)
VRB    - VARIABLE WIND DIRECTION
PRES   - MEAN SEA LEVEL PRESSURE IN INCHES OF MERCURY
         F - FALLING PRESSURE   R - RISING PRESSURE
         S - STEADY PRESSURE
VSB    - VISIBILITY IN MILES
HX     - HEAT INDEX IN FAHRENHEIT
WCI    - WIND CHILL INDEX IN FAHRENHEIT
TC     - TEMPERATURE IN CELSIUS WHICH IS ALSO KNOWN AS
         TEMPERATURE IN CENTIGRADE
AFB    - AIR FORCE BASE
         LUKE AFB IS LUKE AIR FORCE BASE
         DAVIS-MONTHAN IS DAVIS-MONTHAN AIR FORCE BASE
NAS    - NAVAL AIR STATION
         EL CENTRO NAS IS EL CENTRO NAVAL AIR STATION
N/A    - NOT AVAILABLE





USA.gov is the U.S. government's official web portal to all federal, state and local government web resources and services.